Time,TemperatureF,DewpointF,PressureIn,WindDirection,WindDirectionDegrees,WindSpeedMPH,WindSpeedGustMPH,Humidity,HourlyPrecipIn,Conditions,Clouds,dailyrainin,SoftwareType,DateUTC
2013-07-30 00:01:00,67.3,58.8,30.22,East,90,0.0,0.0,74,0.00,,,0.00,WUHU216HW,2013-07-30 04:01:00,
2013-07-30 00:07:00,67.3,59.1,30.22,East,90,0.0,0.0,75,0.00,,,0.00,WUHU216HW,2013-07-30 04:07:00,
2013-07-30 00:12:00,67.3,59.1,30.22,East,90,0.0,0.0,75,0.00,,,0.00,WUHU216HW,2013-07-30 04:12:00,
2013-07-30 00:17:00,67.3,59.1,30.22,East,90,0.0,0.0,75,0.00,,,0.00,WUHU216HW,2013-07-30 04:17:00,
2013-07-30 00:22:00,67.1,59.0,30.22,East,90,0.0,0.0,75,0.00,,,0.00,WUHU216HW,2013-07-30 04:22:00,
2013-07-30 00:27:00,67.0,58.8,30.22,East,90,0.0,0.0,75,0.00,,,0.00,WUHU216HW,2013-07-30 04:27:00,
2013-07-30 00:32:00,67.0,58.8,30.22,East,90,0.0,0.0,75,0.00,,,0.00,WUHU216HW,2013-07-30 04:32:00,
2013-07-30 00:37:00,66.8,58.6,30.22,East,90,0.0,0.0,75,0.00,,,0.00,WUHU216HW,2013-07-30 04:37:00,
2013-07-30 00:42:00,66.6,58.8,30.21,East,90,0.0,0.0,76,0.00,,,0.00,WUHU216HW,2013-07-30 04:42:00,
2013-07-30 00:47:00,66.4,58.6,30.21,East,90,0.0,0.0,76,0.00,,,0.00,WUHU216HW,2013-07-30 04:47:00,
2013-07-30 00:52:00,66.1,58.6,30.21,East,90,0.0,0.0,77,0.00,,,0.00,WUHU216HW,2013-07-30 04:52:00,
2013-07-30 00:57:00,65.9,58.5,30.21,East,90,0.0,0.0,77,0.00,,,0.00,WUHU216HW,2013-07-30 04:57:00,
2013-07-30 01:02:00,65.7,58.3,30.21,East,90,0.0,0.0,77,0.00,,,0.00,WUHU216HW,2013-07-30 05:02:00,
2013-07-30 01:07:00,65.5,58.5,30.21,East,90,0.0,0.0,78,0.00,,,0.00,WUHU216HW,2013-07-30 05:07:00,
2013-07-30 01:12:00,65.5,58.5,30.21,East,90,0.0,0.0,78,0.00,,,0.00,WUHU216HW,2013-07-30 05:12:00,
2013-07-30 01:17:00,65.3,58.3,30.21,East,90,0.0,0.0,78,0.00,,,0.00,WUHU216HW,2013-07-30 05:17:00,
2013-07-30 01:22:00,65.2,58.5,30.21,East,90,0.0,0.0,79,0.00,,,0.00,WUHU216HW,2013-07-30 05:22:00,
2013-07-30 01:27:00,65.2,58.5,30.21,East,90,0.0,0.0,79,0.00,,,0.00,WUHU216HW,2013-07-30 05:27:00,
2013-07-30 01:32:00,65.0,58.3,30.21,East,90,0.0,0.0,79,0.00,,,0.00,WUHU216HW,2013-07-30 05:32:00,
2013-07-30 01:37:00,64.8,58.5,30.21,East,90,0.0,0.0,80,0.00,,,0.00,WUHU216HW,2013-07-30 05:37:00,
2013-07-30 01:42:00,64.6,58.3,30.21,East,90,0.0,0.0,80,0.00,,,0.00,WUHU216HW,2013-07-30 05:42:00,
2013-07-30 01:48:00,64.6,58.3,30.21,East,90,0.0,0.0,80,0.00,,,0.00,WUHU216HW,2013-07-30 05:48:00,
2013-07-30 01:53:00,64.4,58.1,30.20,East,90,0.0,0.0,80,0.00,,,0.00,WUHU216HW,2013-07-30 05:53:00,
2013-07-30 01:57:00,64.4,58.1,30.21,East,90,0.0,0.0,80,0.00,,,0.00,WUHU216HW,2013-07-30 05:57:00,
2013-07-30 02:02:00,64.3,58.0,30.21,East,90,0.0,0.0,80,0.00,,,0.00,WUHU216HW,2013-07-30 06:02:00,
2013-07-30 02:07:00,64.1,57.8,30.20,East,90,0.0,0.0,80,0.00,,,0.00,WUHU216HW,2013-07-30 06:07:00,
2013-07-30 02:12:00,64.1,57.4,30.20,East,90,0.0,0.0,79,0.00,,,0.00,WUHU216HW,2013-07-30 06:12:00,
2013-07-30 02:18:00,64.1,57.8,30.20,East,90,0.0,0.0,80,0.00,,,0.00,WUHU216HW,2013-07-30 06:18:00,
2013-07-30 02:23:00,63.9,57.6,30.20,East,90,0.0,0.0,80,0.00,,,0.00,WUHU216HW,2013-07-30 06:23:00,
2013-07-30 02:28:00,63.7,57.4,30.20,East,90,0.0,0.0,80,0.00,,,0.00,WUHU216HW,2013-07-30 06:28:00,
2013-07-30 02:33:00,63.7,57.8,30.20,East,90,0.0,0.0,81,0.00,,,0.00,WUHU216HW,2013-07-30 06:33:00,
2013-07-30 02:38:00,63.5,57.6,30.20,East,90,0.0,0.0,81,0.00,,,0.00,WUHU216HW,2013-07-30 06:38:00,
2013-07-30 02:43:00,63.5,57.2,30.20,East,90,0.0,0.0,80,0.00,,,0.00,WUHU216HW,2013-07-30 06:43:00,
2013-07-30 02:48:00,63.5,57.2,30.20,East,90,0.0,0.0,80,0.00,,,0.00,WUHU216HW,2013-07-30 06:48:00,
2013-07-30 02:53:00,63.5,57.2,30.20,East,90,0.0,0.0,80,0.00,,,0.00,WUHU216HW,2013-07-30 06:53:00,
2013-07-30 02:58:00,63.4,57.1,30.20,East,90,0.0,0.0,80,0.00,,,0.00,WUHU216HW,2013-07-30 06:58:00,
2013-07-30 03:03:00,63.4,57.1,30.20,East,90,0.0,0.0,80,0.00,,,0.00,WUHU216HW,2013-07-30 07:03:00,
2013-07-30 03:08:00,63.4,57.1,30.20,East,90,0.0,0.0,80,0.00,,,0.00,WUHU216HW,2013-07-30 07:08:00,
2013-07-30 03:13:00,63.4,57.1,30.20,East,90,0.0,0.0,80,0.00,,,0.00,WUHU216HW,2013-07-30 07:13:00,
2013-07-30 03:18:00,63.4,57.4,30.20,East,90,0.0,0.0,81,0.00,,,0.00,WUHU216HW,2013-07-30 07:18:00,
2013-07-30 03:23:00,63.2,57.3,30.20,East,90,0.0,0.0,81,0.00,,,0.00,WUHU216HW,2013-07-30 07:23:00,
2013-07-30 03:28:00,63.2,57.3,30.20,East,90,0.0,0.0,81,0.00,,,0.00,WUHU216HW,2013-07-30 07:28:00,
2013-07-30 03:33:00,63.2,57.3,30.21,East,90,0.0,0.0,81,0.00,,,0.00,WUHU216HW,2013-07-30 07:33:00,
2013-07-30 03:38:00,63.0,57.1,30.21,East,90,0.0,0.0,81,0.00,,,0.00,WUHU216HW,2013-07-30 07:38:00,
2013-07-30 03:43:00,63.2,57.3,30.21,East,90,0.0,0.0,81,0.00,,,0.00,WUHU216HW,2013-07-30 07:43:00,
2013-07-30 03:48:00,63.2,57.3,30.22,East,90,0.0,0.0,81,0.00,,,0.00,WUHU216HW,2013-07-30 07:48:00,
2013-07-30 03:53:00,63.2,57.3,30.22,East,90,0.0,0.0,81,0.00,,,0.00,WUHU216HW,2013-07-30 07:53:00,
2013-07-30 03:58:00,63.0,57.1,30.21,East,90,0.0,0.0,81,0.00,,,0.00,WUHU216HW,2013-07-30 07:58:00,
2013-07-30 04:03:00,63.2,57.3,30.21,East,90,0.0,0.0,81,0.00,,,0.00,WUHU216HW,2013-07-30 08:03:00,
2013-07-30 04:08:00,63.2,57.3,30.21,East,90,0.0,0.0,81,0.00,,,0.00,WUHU216HW,2013-07-30 08:08:00,
2013-07-30 04:13:00,63.2,57.3,30.21,East,90,0.0,0.0,81,0.00,,,0.00,WUHU216HW,2013-07-30 08:13:00,
2013-07-30 04:18:00,63.0,57.4,30.21,East,90,0.0,0.0,82,0.00,,,0.00,WUHU216HW,2013-07-30 08:18:00,
2013-07-30 04:23:00,63.0,57.4,30.21,East,90,0.0,0.0,82,0.00,,,0.00,WUHU216HW,2013-07-30 08:23:00,
2013-07-30 04:28:00,63.0,57.1,30.21,East,90,0.0,0.0,81,0.00,,,0.00,WUHU216HW,2013-07-30 08:28:00,
2013-07-30 04:33:00,63.0,57.1,30.21,East,90,0.0,0.0,81,0.00,,,0.00,WUHU216HW,2013-07-30 08:33:00,
2013-07-30 04:38:00,63.0,57.1,30.21,East,90,0.0,0.0,81,0.00,,,0.00,WUHU216HW,2013-07-30 08:38:00,
2013-07-30 04:43:00,63.0,57.4,30.21,East,90,0.0,0.0,82,0.00,,,0.00,WUHU216HW,2013-07-30 08:43:00,
2013-07-30 04:48:00,62.8,57.3,30.21,East,90,0.0,0.0,82,0.00,,,0.00,WUHU216HW,2013-07-30 08:48:00,
2013-07-30 04:53:00,62.5,56.9,30.21,East,90,0.0,0.0,82,0.00,,,0.00,WUHU216HW,2013-07-30 08:53:00,
2013-07-30 04:58:00,62.3,57.1,30.21,East,90,0.0,0.0,83,0.00,,,0.00,WUHU216HW,2013-07-30 08:58:00,
2013-07-30 05:03:00,61.9,56.7,30.21,East,90,0.0,0.0,83,0.00,,,0.00,WUHU216HW,2013-07-30 09:03:00,
2013-07-30 05:08:00,61.7,56.5,30.21,East,90,0.0,0.0,83,0.00,,,0.00,WUHU216HW,2013-07-30 09:08:00,
2013-07-30 05:13:00,61.7,56.5,30.21,East,90,0.0,0.0,83,0.00,,,0.00,WUHU216HW,2013-07-30 09:13:00,
2013-07-30 05:18:00,61.7,56.5,30.21,East,90,0.0,0.0,83,0.00,,,0.00,WUHU216HW,2013-07-30 09:18:00,
2013-07-30 05:23:00,61.6,56.3,30.21,East,90,0.0,0.0,83,0.00,,,0.00,WUHU216HW,2013-07-30 09:23:00,
2013-07-30 05:28:00,61.6,56.7,30.22,East,90,0.0,0.0,84,0.00,,,0.00,WUHU216HW,2013-07-30 09:28:00,
2013-07-30 05:33:00,61.4,56.5,30.22,East,90,0.0,0.0,84,0.00,,,0.00,WUHU216HW,2013-07-30 09:33:00,
2013-07-30 05:38:00,61.2,56.3,30.22,East,90,0.0,0.0,84,0.00,,,0.00,WUHU216HW,2013-07-30 09:38:00,
2013-07-30 05:43:00,61.2,56.3,30.22,East,90,0.0,0.0,84,0.00,,,0.00,WUHU216HW,2013-07-30 09:43:00,
2013-07-30 05:48:00,61.2,56.3,30.22,East,90,0.0,0.0,84,0.00,,,0.00,WUHU216HW,2013-07-30 09:48:00,
2013-07-30 05:53:00,61.0,56.2,30.22,East,90,0.0,0.0,84,0.00,,,0.00,WUHU216HW,2013-07-30 09:53:00,
2013-07-30 05:58:00,61.0,56.2,30.22,East,90,0.0,0.0,84,0.00,,,0.00,WUHU216HW,2013-07-30 09:58:00,
2013-07-30 06:03:00,60.8,56.3,30.22,East,90,0.0,0.0,85,0.00,,,0.00,WUHU216HW,2013-07-30 10:03:00,
2013-07-30 06:08:00,60.8,56.3,30.22,East,90,0.0,0.0,85,0.00,,,0.00,WUHU216HW,2013-07-30 10:08:00,
2013-07-30 06:13:00,60.8,56.3,30.23,East,90,0.0,0.0,85,0.00,,,0.00,WUHU216HW,2013-07-30 10:13:00,
2013-07-30 06:18:00,60.8,56.3,30.23,East,90,0.0,0.0,85,0.00,,,0.00,WUHU216HW,2013-07-30 10:18:00,
2013-07-30 06:23:00,60.8,56.3,30.23,East,90,0.0,0.0,85,0.00,,,0.00,WUHU216HW,2013-07-30 10:23:00,
2013-07-30 06:28:00,60.8,56.3,30.23,East,90,0.0,0.0,85,0.00,,,0.00,WUHU216HW,2013-07-30 10:28:00,
2013-07-30 06:33:00,60.8,56.3,30.23,East,90,0.0,0.0,85,0.00,,,0.00,WUHU216HW,2013-07-30 10:33:00,
2013-07-30 06:38:00,60.8,56.3,30.23,East,90,0.0,0.0,85,0.00,,,0.00,WUHU216HW,2013-07-30 10:38:00,
2013-07-30 06:43:00,60.8,56.3,30.23,East,90,0.0,0.0,85,0.00,,,0.00,WUHU216HW,2013-07-30 10:43:00,
2013-07-30 06:48:00,60.7,56.2,30.23,East,90,0.0,0.0,85,0.00,,,0.00,WUHU216HW,2013-07-30 10:48:00,
2013-07-30 06:53:00,60.7,56.2,30.24,East,90,0.0,0.0,85,0.00,,,0.00,WUHU216HW,2013-07-30 10:53:00,
2013-07-30 06:58:00,60.5,56.0,30.24,East,90,0.0,0.0,85,0.00,,,0.00,WUHU216HW,2013-07-30 10:58:00,
2013-07-30 07:03:00,60.5,56.4,30.24,East,90,0.0,0.0,86,0.00,,,0.00,WUHU216HW,2013-07-30 11:03:00,
2013-07-30 07:08:00,60.3,56.2,30.23,East,90,0.0,0.0,86,0.00,,,0.00,WUHU216HW,2013-07-30 11:08:00,
2013-07-30 07:13:00,60.3,56.2,30.23,East,90,0.0,0.0,86,0.00,,,0.00,WUHU216HW,2013-07-30 11:13:00,
2013-07-30 07:18:00,60.3,56.2,30.24,East,90,0.0,0.0,86,0.00,,,0.00,WUHU216HW,2013-07-30 11:18:00,
2013-07-30 07:23:00,60.3,56.2,30.24,East,90,0.0,0.0,86,0.00,,,0.00,WUHU216HW,2013-07-30 11:23:00,
2013-07-30 07:28:00,60.3,56.2,30.24,East,90,0.0,0.0,86,0.00,,,0.00,WUHU216HW,2013-07-30 11:28:00,
2013-07-30 07:33:00,60.5,56.6,30.24,East,90,0.0,0.0,87,0.00,,,0.00,WUHU216HW,2013-07-30 11:33:00,
2013-07-30 07:38:00,60.5,56.6,30.24,East,90,0.0,0.0,87,0.00,,,0.00,WUHU216HW,2013-07-30 11:38:00,
2013-07-30 07:43:00,60.5,56.6,30.24,East,90,0.0,0.0,87,0.00,,,0.00,WUHU216HW,2013-07-30 11:43:00,
2013-07-30 07:48:00,60.7,56.8,30.24,East,90,0.0,0.0,87,0.00,,,0.00,WUHU216HW,2013-07-30 11:48:00,
2013-07-30 07:53:00,60.7,56.8,30.24,East,90,0.0,0.0,87,0.00,,,0.00,WUHU216HW,2013-07-30 11:53:00,
2013-07-30 07:58:00,60.8,57.0,30.25,East,90,0.0,0.0,87,0.00,,,0.00,WUHU216HW,2013-07-30 11:58:00,
2013-07-30 08:03:00,60.8,57.0,30.25,East,90,0.0,0.0,87,0.00,,,0.00,WUHU216HW,2013-07-30 12:03:00,
2013-07-30 08:08:00,61.0,57.2,30.25,NE,45,0.0,0.0,87,0.00,,,0.00,WUHU216HW,2013-07-30 12:08:00,
2013-07-30 08:13:00,61.2,57.3,30.25,NNE,23,0.0,0.0,87,0.00,,,0.00,WUHU216HW,2013-07-30 12:13:00,
2013-07-30 08:18:00,61.4,57.5,30.25,NNE,23,0.0,0.0,87,0.00,,,0.00,WUHU216HW,2013-07-30 12:18:00,
2013-07-30 08:23:00,61.6,57.7,30.25,NNE,23,0.0,0.0,87,0.00,,,0.00,WUHU216HW,2013-07-30 12:23:00,
2013-07-30 08:28:00,61.6,57.7,30.25,NNE,23,0.0,0.0,87,0.00,,,0.00,WUHU216HW,2013-07-30 12:28:00,
2013-07-30 08:33:00,61.7,57.9,30.25,NNE,23,0.0,0.0,87,0.00,,,0.00,WUHU216HW,2013-07-30 12:33:00,
2013-07-30 08:38:00,61.9,58.1,30.25,NNE,23,0.0,0.0,87,0.00,,,0.00,WUHU216HW,2013-07-30 12:38:00,
2013-07-30 08:43:00,62.1,58.2,30.25,NNE,23,0.0,0.0,87,0.00,,,0.00,WUHU216HW,2013-07-30 12:43:00,
2013-07-30 08:48:00,62.3,58.4,30.26,ENE,68,0.0,0.4,87,0.00,,,0.00,WUHU216HW,2013-07-30 12:48:00,
2013-07-30 08:53:00,62.6,58.8,30.26,ENE,68,0.0,0.4,87,0.00,,,0.00,WUHU216HW,2013-07-30 12:53:00,
2013-07-30 08:58:00,63.0,59.1,30.26,ENE,68,0.0,0.0,87,0.00,,,0.00,WUHU216HW,2013-07-30 12:58:00,
2013-07-30 09:03:00,63.0,59.1,30.26,ENE,68,0.0,0.0,87,0.00,,,0.00,WUHU216HW,2013-07-30 13:03:00,
2013-07-30 09:08:00,63.4,59.5,30.26,ENE,68,0.0,0.0,87,0.00,,,0.00,WUHU216HW,2013-07-30 13:08:00,
2013-07-30 09:13:00,63.5,59.7,30.26,ENE,68,0.0,0.0,87,0.00,,,0.00,WUHU216HW,2013-07-30 13:13:00,
2013-07-30 09:18:00,63.7,59.5,30.26,ENE,68,0.0,0.0,86,0.00,,,0.00,WUHU216HW,2013-07-30 13:18:00,
2013-07-30 09:23:00,63.9,59.7,30.26,ENE,68,0.0,0.0,86,0.00,,,0.00,WUHU216HW,2013-07-30 13:23:00,
2013-07-30 09:28:00,63.9,59.7,30.26,ENE,68,0.0,0.0,86,0.00,,,0.00,WUHU216HW,2013-07-30 13:28:00,
2013-07-30 09:33:00,64.3,60.0,30.26,ENE,68,0.0,0.0,86,0.00,,,0.00,WUHU216HW,2013-07-30 13:33:00,
2013-07-30 09:38:00,64.4,60.2,30.26,ESE,113,0.2,0.4,86,0.00,,,0.00,WUHU216HW,2013-07-30 13:38:00,
2013-07-30 09:43:00,64.6,60.4,30.26,ESE,113,1.1,1.1,86,0.00,,,0.00,WUHU216HW,2013-07-30 13:43:00,
2013-07-30 09:48:00,65.2,60.8,30.26,SE,135,0.0,1.1,86,0.00,,,0.00,WUHU216HW,2013-07-30 13:48:00,
2013-07-30 09:53:00,65.3,61.0,30.26,SE,135,0.0,1.1,86,0.00,,,0.00,WUHU216HW,2013-07-30 13:53:00,
2013-07-30 09:58:00,65.7,61.4,30.26,SE,135,0.7,1.1,86,0.00,,,0.00,WUHU216HW,2013-07-30 13:58:00,
2013-07-30 10:03:00,65.9,61.6,30.26,SSE,158,0.0,1.1,86,0.00,,,0.00,WUHU216HW,2013-07-30 14:03:00,
2013-07-30 10:08:00,66.4,61.7,30.26,SSE,158,0.0,1.1,85,0.00,,,0.00,WUHU216HW,2013-07-30 14:08:00,
2013-07-30 10:13:00,66.6,61.9,30.26,SW,225,0.0,0.9,85,0.00,,,0.00,WUHU216HW,2013-07-30 14:13:00,
2013-07-30 10:18:00,67.0,61.9,30.26,ESE,113,0.2,0.9,84,0.00,,,0.00,WUHU216HW,2013-07-30 14:18:00,
2013-07-30 10:23:00,67.1,62.1,30.26,SSE,158,0.0,0.7,84,0.00,,,0.00,WUHU216HW,2013-07-30 14:23:00,
2013-07-30 10:28:00,67.3,62.3,30.26,SSE,158,0.0,0.7,84,0.00,,,0.00,WUHU216HW,2013-07-30 14:28:00,
2013-07-30 10:33:00,67.5,62.5,30.26,NW,315,0.4,1.6,84,0.00,,,0.00,WUHU216HW,2013-07-30 14:33:00,
2013-07-30 10:38:00,67.7,62.0,30.26,NNW,338,0.0,1.6,82,0.00,,,0.00,WUHU216HW,2013-07-30 14:38:00,
2013-07-30 10:43:00,68.2,62.9,30.25,SE,135,0.7,1.1,83,0.00,,,0.00,WUHU216HW,2013-07-30 14:43:00,
2013-07-30 10:48:00,68.6,62.9,30.25,SE,135,1.6,1.8,82,0.00,,,0.00,WUHU216HW,2013-07-30 14:48:00,
2013-07-30 10:53:00,68.9,62.6,30.25,SSE,158,0.0,1.8,80,0.00,,,0.00,WUHU216HW,2013-07-30 14:53:00,
2013-07-30 10:58:00,69.1,62.7,30.25,SSE,158,0.0,1.6,80,0.00,,,0.00,WUHU216HW,2013-07-30 14:58:00,
2013-07-30 11:03:00,69.3,62.9,30.25,SW,225,0.0,0.0,80,0.00,,,0.00,WUHU216HW,2013-07-30 15:03:00,
2013-07-30 11:08:00,69.5,63.0,30.25,East,90,0.0,0.4,80,0.00,,,0.00,WUHU216HW,2013-07-30 15:08:00,
2013-07-30 11:13:00,69.8,63.4,30.25,WNW,293,0.2,0.4,80,0.00,,,0.00,WUHU216HW,2013-07-30 15:13:00,
2013-07-30 11:18:00,70.0,63.5,30.24,WNW,293,0.0,0.2,80,0.00,,,0.00,WUHU216HW,2013-07-30 15:18:00,
2013-07-30 11:23:00,70.2,63.7,30.24,SE,135,0.4,0.4,80,0.00,,,0.00,WUHU216HW,2013-07-30 15:23:00,
2013-07-30 11:28:00,70.2,63.7,30.24,SE,135,0.0,0.7,80,0.00,,,0.00,WUHU216HW,2013-07-30 15:28:00,
2013-07-30 11:33:00,70.2,63.7,30.24,SE,135,0.0,0.7,80,0.00,,,0.00,WUHU216HW,2013-07-30 15:33:00,
2013-07-30 11:38:00,70.0,63.5,30.24,SE,135,0.0,0.0,80,0.00,,,0.00,WUHU216HW,2013-07-30 15:38:00,
2013-07-30 11:43:00,70.2,63.7,30.25,WNW,293,1.1,1.1,80,0.00,,,0.00,WUHU216HW,2013-07-30 15:43:00,
2013-07-30 11:48:00,70.2,63.7,30.25,WNW,293,0.0,1.1,80,0.00,,,0.00,WUHU216HW,2013-07-30 15:48:00,
2013-07-30 11:53:00,70.2,63.7,30.24,WNW,293,0.0,1.1,80,0.00,,,0.00,WUHU216HW,2013-07-30 15:53:00,
2013-07-30 11:58:00,70.0,63.2,30.24,WNW,293,0.4,0.9,79,0.00,,,0.00,WUHU216HW,2013-07-30 15:58:00,
2013-07-30 12:03:00,70.2,63.4,30.24,WNW,293,0.0,0.9,79,0.00,,,0.00,WUHU216HW,2013-07-30 16:03:00,
2013-07-30 12:08:00,70.2,63.4,30.24,WNW,293,0.0,0.7,79,0.00,,,0.00,WUHU216HW,2013-07-30 16:08:00,
2013-07-30 12:13:00,70.2,63.4,30.24,WNW,293,0.0,0.7,79,0.00,,,0.00,WUHU216HW,2013-07-30 16:13:00,
2013-07-30 12:18:00,70.2,63.4,30.23,WNW,293,0.0,0.2,79,0.00,,,0.00,WUHU216HW,2013-07-30 16:18:00,
2013-07-30 12:23:00,70.4,63.9,30.24,WNW,293,0.0,0.0,80,0.00,,,0.00,WUHU216HW,2013-07-30 16:23:00,
2013-07-30 12:28:00,70.4,63.9,30.24,WNW,293,0.0,0.0,80,0.00,,,0.00,WUHU216HW,2013-07-30 16:28:00,
2013-07-30 12:33:00,70.6,64.1,30.23,WNW,293,0.0,0.0,80,0.00,,,0.00,WUHU216HW,2013-07-30 16:33:00,
2013-07-30 12:38:00,70.7,64.3,30.23,WNW,293,0.0,0.0,80,0.00,,,0.00,WUHU216HW,2013-07-30 16:38:00,
2013-07-30 12:43:00,70.9,64.4,30.23,WNW,293,0.0,0.0,80,0.00,,,0.00,WUHU216HW,2013-07-30 16:43:00,
2013-07-30 12:48:00,70.9,64.4,30.23,SE,135,0.0,0.7,80,0.00,,,0.00,WUHU216HW,2013-07-30 16:48:00,
2013-07-30 12:53:00,70.9,64.1,30.24,SE,135,0.0,0.7,79,0.00,,,0.00,WUHU216HW,2013-07-30 16:53:00,
2013-07-30 12:58:00,70.9,64.1,30.24,SE,135,0.0,0.0,79,0.00,,,0.00,WUHU216HW,2013-07-30 16:58:00,
2013-07-30 13:03:00,70.9,63.7,30.23,SE,135,0.0,0.0,78,0.00,,,0.00,WUHU216HW,2013-07-30 17:03:00,
2013-07-30 13:08:00,70.9,63.7,30.23,SE,135,0.0,0.0,78,0.00,,,0.00,WUHU216HW,2013-07-30 17:08:00,
2013-07-30 13:13:00,71.1,63.9,30.23,SE,135,0.0,0.0,78,0.00,,,0.00,WUHU216HW,2013-07-30 17:13:00,
2013-07-30 13:18:00,71.1,63.9,30.23,SE,135,0.0,0.0,78,0.00,,,0.00,WUHU216HW,2013-07-30 17:18:00,
2013-07-30 13:23:00,71.3,64.1,30.23,SE,135,0.0,0.0,78,0.00,,,0.00,WUHU216HW,2013-07-30 17:23:00,
2013-07-30 13:28:00,71.5,64.6,30.23,NNW,338,0.7,0.7,79,0.00,,,0.00,WUHU216HW,2013-07-30 17:28:00,
2013-07-30 13:33:00,71.6,64.5,30.23,North,0,0.0,0.9,78,0.00,,,0.00,WUHU216HW,2013-07-30 17:33:00,
2013-07-30 13:38:00,71.8,65.0,30.23,NW,315,0.0,0.9,79,0.00,,,0.00,WUHU216HW,2013-07-30 17:38:00,
2013-07-30 13:43:00,72.0,64.8,30.23,NNW,338,0.4,0.9,78,0.00,,,0.00,WUHU216HW,2013-07-30 17:43:00,
2013-07-30 13:48:00,72.0,64.8,30.23,NNW,338,0.4,0.9,78,0.00,,,0.00,WUHU216HW,2013-07-30 17:48:00,
2013-07-30 13:53:00,72.2,64.5,30.23,NNW,338,0.0,1.1,77,0.00,,,0.00,WUHU216HW,2013-07-30 17:53:00,
2013-07-30 13:58:00,72.5,65.4,30.23,WSW,248,0.9,1.1,78,0.00,,,0.00,WUHU216HW,2013-07-30 17:58:00,
2013-07-30 14:03:00,72.7,65.5,30.22,WSW,248,0.0,1.1,78,0.00,,,0.00,WUHU216HW,2013-07-30 18:03:00,
2013-07-30 14:08:00,72.9,65.7,30.23,North,0,0.4,1.3,78,0.00,,,0.00,WUHU216HW,2013-07-30 18:08:00,
2013-07-30 14:13:00,72.9,65.3,30.23,NW,315,0.0,1.3,77,0.00,,,0.00,WUHU216HW,2013-07-30 18:13:00,
2013-07-30 14:18:00,72.9,65.7,30.23,NW,315,0.0,0.9,78,0.00,,,0.00,WUHU216HW,2013-07-30 18:18:00,
2013-07-30 14:23:00,72.9,65.7,30.23,NW,315,0.0,0.0,78,0.00,,,0.00,WUHU216HW,2013-07-30 18:23:00,
2013-07-30 14:28:00,72.7,65.5,30.22,North,0,0.0,0.0,78,0.00,,,0.00,WUHU216HW,2013-07-30 18:28:00,
2013-07-30 14:33:00,72.7,65.5,30.23,North,0,0.0,0.0,78,0.00,,,0.00,WUHU216HW,2013-07-30 18:33:00,
2013-07-30 14:38:00,72.7,65.9,30.22,North,0,0.0,0.0,79,0.00,,,0.00,WUHU216HW,2013-07-30 18:38:00,
2013-07-30 14:43:00,72.7,65.5,30.23,North,0,0.0,0.7,78,0.00,,,0.00,WUHU216HW,2013-07-30 18:43:00,
2013-07-30 14:48:00,72.7,65.9,30.22,NNW,338,0.0,0.7,79,0.00,,,0.00,WUHU216HW,2013-07-30 18:48:00,
2013-07-30 14:53:00,72.9,66.1,30.22,NNW,338,0.0,0.7,79,0.00,,,0.00,WUHU216HW,2013-07-30 18:53:00,
2013-07-30 14:58:00,72.9,65.7,30.22,North,0,0.0,1.1,78,0.00,,,0.00,WUHU216HW,2013-07-30 18:58:00,
2013-07-30 15:03:00,73.1,65.9,30.22,NNW,338,0.4,1.1,78,0.00,,,0.00,WUHU216HW,2013-07-30 19:03:00,
2013-07-30 15:08:00,73.1,65.9,30.22,North,0,0.4,1.1,78,0.00,,,0.00,WUHU216HW,2013-07-30 19:08:00,
2013-07-30 15:13:00,73.1,65.9,30.22,NNE,23,0.0,1.1,78,0.00,,,0.00,WUHU216HW,2013-07-30 19:13:00,
2013-07-30 15:18:00,73.3,65.6,30.22,NNE,23,0.0,1.1,77,0.00,,,0.00,WUHU216HW,2013-07-30 19:18:00,
2013-07-30 15:23:00,73.1,65.4,30.22,NNW,338,0.0,0.9,77,0.00,,,0.00,WUHU216HW,2013-07-30 19:23:00,
2013-07-30 15:28:00,73.1,65.1,30.22,NNW,338,0.0,0.9,76,0.00,,,0.00,WUHU216HW,2013-07-30 19:28:00,
2013-07-30 15:33:00,72.9,64.9,30.22,NNW,338,0.0,0.2,76,0.00,,,0.00,WUHU216HW,2013-07-30 19:33:00,
2013-07-30 15:38:00,72.7,64.7,30.22,NNW,338,0.0,0.2,76,0.00,,,0.00,WUHU216HW,2013-07-30 19:38:00,
2013-07-30 15:43:00,72.5,64.5,30.22,NNW,338,0.0,0.0,76,0.00,,,0.00,WUHU216HW,2013-07-30 19:43:00,
2013-07-30 15:48:00,72.5,64.5,30.21,NNW,338,0.0,0.7,76,0.00,,,0.00,WUHU216HW,2013-07-30 19:48:00,
2013-07-30 15:53:00,72.4,64.4,30.21,NNW,338,0.0,0.7,76,0.00,,,0.00,WUHU216HW,2013-07-30 19:53:00,
2013-07-30 15:58:00,72.4,64.4,30.21,NNW,338,0.0,0.0,76,0.00,,,0.00,WUHU216HW,2013-07-30 19:58:00,
2013-07-30 16:03:00,72.4,64.4,30.21,NNW,338,0.0,0.0,76,0.00,,,0.00,WUHU216HW,2013-07-30 20:03:00,
2013-07-30 16:08:00,72.4,64.7,30.21,NNW,338,0.0,0.0,77,0.00,,,0.00,WUHU216HW,2013-07-30 20:08:00,
2013-07-30 16:13:00,72.4,64.7,30.21,NNW,338,0.0,0.0,77,0.00,,,0.00,WUHU216HW,2013-07-30 20:13:00,
2013-07-30 16:18:00,72.4,64.4,30.21,NNW,338,0.0,0.0,76,0.00,,,0.00,WUHU216HW,2013-07-30 20:18:00,
2013-07-30 16:23:00,72.4,64.4,30.20,NNW,338,0.0,0.0,76,0.00,,,0.00,WUHU216HW,2013-07-30 20:23:00,
2013-07-30 16:28:00,72.5,64.5,30.20,NNW,338,0.0,0.0,76,0.00,,,0.00,WUHU216HW,2013-07-30 20:28:00,
2013-07-30 16:33:00,72.5,64.5,30.20,NNW,338,0.0,0.0,76,0.00,,,0.00,WUHU216HW,2013-07-30 20:33:00,
2013-07-30 16:38:00,72.4,64.0,30.21,NNW,338,0.0,0.0,75,0.00,,,0.00,WUHU216HW,2013-07-30 20:38:00,
2013-07-30 16:43:00,72.4,64.4,30.20,NNW,338,0.0,0.0,76,0.00,,,0.00,WUHU216HW,2013-07-30 20:43:00,
2013-07-30 16:48:00,72.5,64.5,30.20,NNW,338,0.0,0.0,76,0.00,,,0.00,WUHU216HW,2013-07-30 20:48:00,
2013-07-30 16:53:00,72.5,64.5,30.20,NNW,338,0.0,0.0,76,0.00,,,0.00,WUHU216HW,2013-07-30 20:53:00,
2013-07-30 16:58:00,72.5,64.9,30.20,NNW,338,0.0,0.0,77,0.00,,,0.00,WUHU216HW,2013-07-30 20:58:00,
2013-07-30 17:03:00,72.5,64.5,30.20,NNW,338,0.0,0.0,76,0.00,,,0.00,WUHU216HW,2013-07-30 21:03:00,
2013-07-30 17:08:00,72.5,64.5,30.20,NNW,338,0.0,0.0,76,0.00,,,0.00,WUHU216HW,2013-07-30 21:08:00,
2013-07-30 17:13:00,72.4,64.4,30.20,NNW,338,0.0,0.0,76,0.00,,,0.00,WUHU216HW,2013-07-30 21:13:00,
2013-07-30 17:18:00,72.4,64.4,30.20,NNW,338,0.0,0.0,76,0.00,,,0.00,WUHU216HW,2013-07-30 21:18:00,
2013-07-30 17:23:00,72.2,63.8,30.20,NNW,338,0.0,0.0,75,0.00,,,0.00,WUHU216HW,2013-07-30 21:23:00,
2013-07-30 17:28:00,72.2,63.8,30.20,NNW,338,0.0,0.0,75,0.00,,,0.00,WUHU216HW,2013-07-30 21:28:00,
2013-07-30 17:33:00,72.0,64.0,30.19,NNW,338,0.0,0.0,76,0.00,,,0.00,WUHU216HW,2013-07-30 21:33:00,
2013-07-30 17:38:00,72.0,64.0,30.19,NNW,338,0.0,0.0,76,0.00,,,0.00,WUHU216HW,2013-07-30 21:38:00,
2013-07-30 17:43:00,72.0,64.0,30.19,NNW,338,0.0,0.0,76,0.00,,,0.00,WUHU216HW,2013-07-30 21:43:00,
2013-07-30 17:48:00,72.0,64.0,30.19,NNW,338,0.0,0.0,76,0.00,,,0.00,WUHU216HW,2013-07-30 21:48:00,
2013-07-30 17:53:00,72.0,64.4,30.19,NNW,338,0.0,0.0,77,0.00,,,0.00,WUHU216HW,2013-07-30 21:53:00,
2013-07-30 17:58:00,72.0,64.4,30.19,NNW,338,0.0,0.0,77,0.00,,,0.00,WUHU216HW,2013-07-30 21:58:00,
2013-07-30 18:03:00,72.0,64.4,30.19,NNW,338,0.0,0.0,77,0.00,,,0.00,WUHU216HW,2013-07-30 22:03:00,
2013-07-30 18:08:00,72.0,64.8,30.19,NNW,338,0.0,0.0,78,0.00,,,0.00,WUHU216HW,2013-07-30 22:08:00,
2013-07-30 18:13:00,72.0,64.8,30.19,NNW,338,0.0,0.0,78,0.00,,,0.00,WUHU216HW,2013-07-30 22:13:00,
2013-07-30 18:18:00,72.0,64.8,30.19,NNW,338,0.0,0.0,78,0.00,,,0.00,WUHU216HW,2013-07-30 22:18:00,
2013-07-30 18:23:00,72.0,64.8,30.19,NNW,338,0.0,0.0,78,0.00,,,0.00,WUHU216HW,2013-07-30 22:23:00,
2013-07-30 18:28:00,71.8,65.0,30.18,NNW,338,0.0,0.0,79,0.00,,,0.00,WUHU216HW,2013-07-30 22:28:00,
2013-07-30 18:33:00,71.8,65.0,30.18,NNW,338,0.0,0.0,79,0.00,,,0.00,WUHU216HW,2013-07-30 22:33:00,
2013-07-30 18:38:00,71.8,65.0,30.18,NNW,338,0.0,0.0,79,0.00,,,0.00,WUHU216HW,2013-07-30 22:38:00,
2013-07-30 18:43:00,71.8,65.0,30.18,NNW,338,0.0,0.0,79,0.00,,,0.00,WUHU216HW,2013-07-30 22:43:00,
2013-07-30 18:48:00,71.6,64.8,30.18,NNW,338,0.0,0.0,79,0.00,,,0.00,WUHU216HW,2013-07-30 22:48:00,
2013-07-30 18:53:00,71.6,64.5,30.18,NNW,338,0.0,0.0,78,0.00,,,0.00,WUHU216HW,2013-07-30 22:53:00,
2013-07-30 18:58:00,71.6,64.5,30.18,NNW,338,0.2,0.2,78,0.00,,,0.00,WUHU216HW,2013-07-30 22:58:00,
2013-07-30 19:03:00,71.6,64.8,30.18,NNW,338,0.0,0.2,79,0.00,,,0.00,WUHU216HW,2013-07-30 23:03:00,
2013-07-30 19:08:00,71.5,64.6,30.18,NNW,338,0.0,0.2,79,0.00,,,0.00,WUHU216HW,2013-07-30 23:08:00,
2013-07-30 19:13:00,71.5,64.6,30.18,NNW,338,0.0,0.2,79,0.00,,,0.00,WUHU216HW,2013-07-30 23:13:00,
2013-07-30 19:18:00,71.3,64.5,30.18,NNW,338,0.0,0.0,79,0.00,,,0.00,WUHU216HW,2013-07-30 23:18:00,
2013-07-30 19:23:00,71.3,64.5,30.18,ESE,113,0.0,0.0,79,0.00,,,0.00,WUHU216HW,2013-07-30 23:23:00,
2013-07-30 19:28:00,71.3,64.5,30.18,ESE,113,0.0,0.0,79,0.00,,,0.00,WUHU216HW,2013-07-30 23:28:00,
2013-07-30 19:33:00,71.1,64.3,30.18,North,0,0.7,0.7,79,0.00,,,0.00,WUHU216HW,2013-07-30 23:33:00,
2013-07-30 19:38:00,71.1,64.3,30.17,North,0,0.0,0.7,79,0.00,,,0.00,WUHU216HW,2013-07-30 23:38:00,
2013-07-30 19:43:00,71.1,64.6,30.18,NW,315,0.0,0.7,80,0.00,,,0.00,WUHU216HW,2013-07-30 23:43:00,
2013-07-30 19:48:00,70.9,64.4,30.18,WSW,248,0.0,0.9,80,0.00,,,0.00,WUHU216HW,2013-07-30 23:48:00,
2013-07-30 19:53:00,70.7,64.3,30.18,NNW,338,0.0,0.9,80,0.00,,,0.00,WUHU216HW,2013-07-30 23:53:00,
2013-07-30 19:58:00,70.7,64.3,30.18,NNW,338,0.0,0.0,80,0.00,,,0.00,WUHU216HW,2013-07-30 23:58:00,
2013-07-30 20:03:00,70.7,64.3,30.18,NNW,338,0.0,0.0,80,0.00,,,0.00,WUHU216HW,2013-07-31 00:03:00,
2013-07-30 20:08:00,70.7,64.3,30.18,NNW,338,0.0,0.2,80,0.00,,,0.00,WUHU216HW,2013-07-31 00:08:00,
2013-07-30 20:13:00,70.7,64.3,30.18,NNW,338,0.0,0.2,80,0.00,,,0.00,WUHU216HW,2013-07-31 00:13:00,
2013-07-30 20:18:00,70.7,64.3,30.18,NNW,338,0.0,0.0,80,0.00,,,0.00,WUHU216HW,2013-07-31 00:18:00,
2013-07-30 20:23:00,70.7,64.3,30.18,NNW,338,0.0,0.0,80,0.00,,,0.00,WUHU216HW,2013-07-31 00:23:00,
2013-07-30 20:28:00,70.7,64.3,30.18,NNW,338,0.0,0.0,80,0.00,,,0.00,WUHU216HW,2013-07-31 00:28:00,
2013-07-30 20:33:00,70.6,64.1,30.18,NNW,338,0.0,0.0,80,0.00,,,0.00,WUHU216HW,2013-07-31 00:33:00,
2013-07-30 20:38:00,70.6,64.1,30.18,NNW,338,0.0,0.0,80,0.00,,,0.00,WUHU216HW,2013-07-31 00:38:00,
2013-07-30 20:43:00,70.6,64.1,30.18,NNW,338,0.0,0.0,80,0.00,,,0.00,WUHU216HW,2013-07-31 00:43:00,
2013-07-30 20:48:00,70.4,64.3,30.18,NNW,338,0.0,0.0,81,0.00,,,0.00,WUHU216HW,2013-07-31 00:48:00,
2013-07-30 20:53:00,70.4,64.3,30.18,NNW,338,0.0,0.0,81,0.00,,,0.00,WUHU216HW,2013-07-31 00:53:00,
2013-07-30 20:58:00,70.4,64.3,30.18,North,0,1.1,1.3,81,0.00,,,0.00,WUHU216HW,2013-07-31 00:58:00,
2013-07-30 21:03:00,70.2,64.5,30.18,North,0,0.0,1.3,82,0.00,,,0.00,WUHU216HW,2013-07-31 01:03:00,
2013-07-30 21:08:00,70.2,64.5,30.18,North,0,0.0,0.4,82,0.00,,,0.00,WUHU216HW,2013-07-31 01:08:00,
2013-07-30 21:13:00,70.2,64.5,30.18,North,0,0.0,0.0,82,0.00,,,0.00,WUHU216HW,2013-07-31 01:13:00,
2013-07-30 21:18:00,70.2,64.5,30.18,North,0,0.0,0.0,82,0.00,,,0.00,WUHU216HW,2013-07-31 01:18:00,
2013-07-30 21:23:00,70.2,64.5,30.18,North,0,0.0,0.0,82,0.00,,,0.00,WUHU216HW,2013-07-31 01:23:00,
2013-07-30 21:28:00,70.2,64.5,30.18,North,0,0.0,0.0,82,0.00,,,0.00,WUHU216HW,2013-07-31 01:28:00,
2013-07-30 21:33:00,70.2,64.5,30.18,North,0,0.0,0.0,82,0.00,,,0.00,WUHU216HW,2013-07-31 01:33:00,
2013-07-30 21:38:00,70.2,64.5,30.19,North,0,0.0,0.0,82,0.00,,,0.00,WUHU216HW,2013-07-31 01:38:00,
2013-07-30 21:43:00,70.2,64.5,30.19,North,0,0.0,0.0,82,0.00,,,0.00,WUHU216HW,2013-07-31 01:43:00,
2013-07-30 21:48:00,70.0,64.5,30.19,North,0,0.0,0.0,83,0.00,,,0.00,WUHU216HW,2013-07-31 01:48:00,
2013-07-30 21:53:00,70.0,64.5,30.19,North,0,0.0,0.0,83,0.00,,,0.00,WUHU216HW,2013-07-31 01:53:00,
2013-07-30 21:58:00,69.8,64.4,30.19,North,0,0.0,0.0,83,0.00,,,0.00,WUHU216HW,2013-07-31 01:58:00,
2013-07-30 22:03:00,70.0,64.5,30.19,North,0,0.0,0.0,83,0.00,,,0.00,WUHU216HW,2013-07-31 02:03:00,
2013-07-30 22:08:00,69.8,64.4,30.20,North,0,0.0,0.0,83,0.00,,,0.00,WUHU216HW,2013-07-31 02:08:00,
2013-07-30 22:13:00,69.8,64.4,30.20,North,0,0.0,0.0,83,0.00,,,0.00,WUHU216HW,2013-07-31 02:13:00,
2013-07-30 22:18:00,69.8,64.7,30.20,North,0,0.0,0.0,84,0.00,,,0.00,WUHU216HW,2013-07-31 02:18:00,
2013-07-30 22:23:00,69.8,64.7,30.20,North,0,0.0,0.0,84,0.00,,,0.00,WUHU216HW,2013-07-31 02:23:00,
2013-07-30 22:28:00,69.8,64.7,30.20,North,0,0.0,0.0,84,0.00,,,0.00,WUHU216HW,2013-07-31 02:28:00,
2013-07-30 22:33:00,69.8,64.4,30.21,North,0,0.0,0.0,83,0.00,,,0.00,WUHU216HW,2013-07-31 02:33:00,
2013-07-30 22:38:00,69.8,64.4,30.21,North,0,0.0,0.0,83,0.00,,,0.00,WUHU216HW,2013-07-31 02:38:00,
2013-07-30 22:43:00,69.8,64.4,30.21,North,0,0.0,0.0,83,0.00,,,0.00,WUHU216HW,2013-07-31 02:43:00,
2013-07-30 22:48:00,69.8,64.7,30.21,North,0,0.0,0.0,84,0.00,,,0.00,WUHU216HW,2013-07-31 02:48:00,
2013-07-30 22:53:00,69.8,64.7,30.21,North,0,0.0,0.0,84,0.00,,,0.00,WUHU216HW,2013-07-31 02:53:00,
2013-07-30 22:58:00,69.7,64.5,30.21,North,0,0.0,0.0,84,0.00,,,0.00,WUHU216HW,2013-07-31 02:58:00,
2013-07-30 23:03:00,69.7,64.5,30.21,North,0,0.0,0.0,84,0.00,,,0.00,WUHU216HW,2013-07-31 03:03:00,
2013-07-30 23:08:00,69.7,64.5,30.21,North,0,0.0,0.0,84,0.00,,,0.00,WUHU216HW,2013-07-31 03:08:00,
2013-07-30 23:13:00,69.5,64.4,30.21,North,0,0.0,0.0,84,0.00,,,0.00,WUHU216HW,2013-07-31 03:13:00,
2013-07-30 23:18:00,69.5,64.4,30.22,North,0,0.0,0.0,84,0.00,,,0.00,WUHU216HW,2013-07-31 03:18:00,
2013-07-30 23:23:00,69.5,64.4,30.21,North,0,0.0,0.0,84,0.00,,,0.00,WUHU216HW,2013-07-31 03:23:00,
2013-07-30 23:28:00,69.5,64.7,30.21,North,0,0.0,0.0,85,0.00,,,0.00,WUHU216HW,2013-07-31 03:28:00,
2013-07-30 23:33:00,69.5,64.7,30.21,North,0,0.0,0.0,85,0.00,,,0.00,WUHU216HW,2013-07-31 03:33:00,
2013-07-30 23:38:00,69.5,64.7,30.21,North,0,0.0,0.0,85,0.00,,,0.00,WUHU216HW,2013-07-31 03:38:00,
2013-07-30 23:43:00,69.5,64.7,30.21,NNE,23,0.0,0.0,85,0.00,,,0.00,WUHU216HW,2013-07-31 03:43:00,
2013-07-30 23:48:00,69.3,64.5,30.21,NNE,23,0.0,0.0,85,0.00,,,0.00,WUHU216HW,2013-07-31 03:48:00,
2013-07-30 23:53:00,69.3,64.5,30.20,NNE,23,0.0,0.0,85,0.00,,,0.00,WUHU216HW,2013-07-31 03:53:00,
2013-07-30 23:58:00,69.1,64.4,30.20,NNE,23,0.0,0.0,85,0.00,,,0.00,WUHU216HW,2013-07-31 03:58:00,